User: anonymous   Login
Location: Cranbrook Institute of Science
(42.5830°N, 83.2450°W)
Time: 23:16:59
(UTC-04:00)
Language:

ATLAS 5 CENTAUR R/B - Orbit

View from above orbital plane
View from above orbital plane
View from above satellite
View from above satellite

Ground track
Ground track

The orbit data is extracted from the following two-line orbital elements,

1 31702U 07027B   16271.01434602 0.00000550  00000-0  19552-3 0    04
2 31702  63.3712 269.5519 0247315   0.7749 359.2250 14.18514198    01
Epoch (UTC): 27 September 2016 00:20:39
Eccentricity: 0.0247315
inclination: 63.3712°
perigee height: 652 km
apogee height: 1008 km
right ascension of ascending node: 269.5519°
argument of perigee: 0.7749°
revolutions per day: 14.18514198
mean anomaly at epoch: 359.2250°
orbit number at epoch: 0

The dashed part of the orbit path shows where the satellite is in the earth's shadow,  

DLR